EW3060 Weather Reports


Display with metric or nautical units.
time (UTC)temp
F
wind
direction
speed
MPH
gust
MPH
rain 1hr
in
rain 24hr
in
rain mn
in
humidity
%
barometer
mb
20260831060028 75 195 1.0 2.0 0.00 0.00 0.00 38 1003.3
20260831054534 75 201 0.0 3.0 0.00 0.00 0.00 39 1003.4
20260831053027 75 175 0.0 3.0 0.00 0.00 0.00 38 1003.4
20260831051528 76 209 0.0 5.0 0.00 0.00 0.00 38 1003.4
20260831050026 75 212 0.0 2.0 0.00 0.00 0.00 40 1003.3
20260831044527 75 188 1.0 2.0 0.00 0.00 0.00 43 1003.0
20260831043025 76 189 0.0 2.0 0.00 0.00 0.00 43 1003.0
20260831041600 76 183 1.0 2.0 0.00 0.00 0.00 42 1002.8
20260831040025 76 183 1.0 3.0 0.00 0.00 0.00 43 1002.9
20260831034525 76 196 0.0 2.0 0.00 0.00 0.00 46 1002.9
20260831033028 77 187 0.0 2.0 0.00 0.00 0.00 43 1002.6
20260831031523 76 212 0.0 2.0 0.00 0.00 0.00 45 1002.3
20260831030022 77 184 0.0 2.0 0.00 0.00 0.00 45 1001.9
20260831024528 78 213 0.0 2.0 0.00 0.00 0.00 45 1001.9
20260831023022 78 189 1.0 4.0 0.00 0.00 0.00 44 1001.8
20260831021535 79 184 1.0 3.0 0.00 0.00 0.00 41 1001.8
20260831020021 80 207 1.0 3.0 0.00 0.00 0.00 39 1001.7
20260831014523 81 192 1.0 3.0 0.00 0.00 0.00 37 1001.7
20260831013021 82 216 1.0 4.0 0.00 0.00 0.00 36 1001.9
20260831011538 83 181 1.0 4.0 0.00 0.00 0.00 34 1002.0
20260831010019 84 211 1.0 4.0 0.00 0.00 0.00 32 1001.9
20260830223014 88 242 1.0 6.0 0.00 0.00 0.00 26 1002.1
20260830221512 87 224 1.0 3.0 0.00 0.00 0.00 32 1002.3
20260830220014 86 164 2.0 6.0 0.00 0.00 0.00 30 1002.5
20260830214511 87 197 2.0 4.0 0.00 0.00 0.00 27 1002.6
20260830213010 87 183 2.0 5.0 0.00 0.00 0.00 27 1002.7
20260830211510 87 158 1.0 14.0 0.00 0.00 0.00 27 1003.0
20260830210010 88 199 2.0 5.0 0.00 0.00 0.00 25 1003.2
20260830204506 87 188 1.0 6.0 0.00 0.00 0.00 26 1003.2
20260830203006 87 191 2.0 8.0 0.00 0.00 0.00 27 1003.2
20260830201506 87 218 1.0 4.0 0.00 0.00 0.00 27 1003.3
20260830200003 87 228 1.0 3.0 0.00 0.00 0.00 28 1003.3
20260830194502 87 201 1.0 5.0 0.00 0.00 0.00 26 1003.5
20260830193105 87 203 1.0 4.0 0.00 0.00 0.00 27 1003.5
20260830191600 88 201 0.0 2.0 0.00 0.00 0.00 28 1003.5
20260830190058 87 187 0.0 7.0 0.00 0.00 0.00 28 1003.6
20260830184611 87 216 0.0 3.0 0.00 0.00 0.00 29 1003.6
20260830183103 87 188 0.0 2.0 0.00 0.00 0.00 28 1003.6
20260830181555 86 205 0.0 2.0 0.00 0.00 0.00 28 1003.6
20260830180054 87 239 0.0 3.0 0.00 0.00 0.00 28 1003.7
20260830174552 86 153 0.0 0.0 0.00 0.00 0.00 29 1003.7
20260830173050 85 210 0.0 0.0 0.00 0.00 0.00 30 1003.8
20260830171551 84 228 0.0 0.0 0.00 0.00 0.00 32 1003.7
20260830170043 83 215 0.0 0.0 0.00 0.00 0.00 33 1003.7
20260830164539 83 212 0.0 1.0 0.00 0.00 0.00 35 1003.7
20260830163044 82 207 0.0 0.0 0.00 0.00 0.00 38 1003.8
20260830161540 81 76 0.0 0.0 0.00 0.00 0.00 42 1003.8
20260830160031 79 245 0.0 0.0 0.00 0.00 0.00 45 1003.8
20260830154528 77 247 0.0 0.0 0.00 0.00 0.00 49 1003.9
20260830153027 75 251 0.0 0.0 0.00 0.00 0.00 52 1003.9
20260830151526 73 252 0.0 0.0 0.00 0.00 0.00 55 1004.0
20260830150025 71 252 0.0 0.0 0.00 0.00 0.00 57 1004.0
20260830144529 71 359 0.0 0.0 0.00 0.00 0.00 58 1004.0
20260830143024 70 252 0.0 0.0 0.00 0.00 0.00 60 1003.9
20260830141522 69 251 0.0 0.0 0.00 0.00 0.00 60 1003.9
20260830140020 69 359 0.0 0.0 0.00 0.00 0.00 60 1003.8
20260830134531 69 359 0.0 0.0 0.00 0.00 0.00 60 1003.6
20260830133017 68 252 0.0 0.0 0.00 0.00 0.00 61 1003.7
20260830131513 69 252 0.0 0.0 0.00 0.00 0.00 59 1003.4
20260830130014 70 253 0.0 0.0 0.00 0.00 0.00 56 1003.5
20260830124508 71 253 0.0 0.0 0.00 0.00 0.00 55 1003.3
20260830123016 71 253 0.0 0.0 0.00 0.00 0.00 55 1003.2
20260830121504 71 253 0.0 0.0 0.00 0.00 0.00 55 1003.2
20260830120002 72 253 0.0 0.0 0.00 0.00 0.00 55 1003.1
20260830114602 72 252 0.0 0.0 0.00 0.00 0.00 53 1003.0
20260830113059 72 252 0.0 0.0 0.00 0.00 0.00 53 1002.9
20260830111556 73 251 0.0 0.0 0.00 0.00 0.00 52 1002.8
20260830110100 73 258 0.0 1.0 0.00 0.00 0.00 52 1002.6
20260830104553 73 257 0.0 0.0 0.00 0.00 0.00 54 1002.6
20260830103052 74 252 0.0 1.0 0.00 0.00 0.00 52 1002.6
20260830101551 74 260 0.0 0.0 0.00 0.00 0.00 52 1002.6
20260830100104 74 251 0.0 0.0 0.00 0.00 0.00 53 1002.5
20260830094549 74 257 0.0 0.0 0.00 0.00 0.00 53 1002.5
20260830093048 74 270 0.0 0.0 0.00 0.00 0.00 53 1002.4
20260830091546 74 273 0.0 0.0 0.00 0.00 0.00 54 1002.6
20260830090043 74 359 0.0 0.0 0.00 0.00 0.00 53 1002.7
20260830084613 75 274 0.0 0.0 0.00 0.00 0.00 52 1002.7
20260830083040 75 274 0.0 0.0 0.00 0.00 0.00 52 1002.8
20260830081547 75 276 0.0 0.0 0.00 0.00 0.00 52 1002.7
20260830080038 76 273 0.0 0.0 0.00 0.00 0.00 51 1002.8
20260830074543 76 249 0.0 0.0 0.00 0.00 0.00 51 1002.9
20260830073034 75 247 0.0 0.0 0.00 0.00 0.00 53 1003.0
20260830071531 77 243 0.0 0.0 0.00 0.00 0.00 49 1003.2
20260830070027 77 241 0.0 0.0 0.00 0.00 0.00 46 1003.1
20260830064527 78 241 0.0 1.0 0.00 0.00 0.00 44 1002.9
20260830063026 78 249 0.0 2.0 0.00 0.00 0.00 42 1003.0
20260830061531 78 234 0.0 3.0 0.00 0.00 0.00 44 1002.9